Location: Montbazon
(47.2835°N, 0.6999°E)
Time: 02:33:30
(UTC+00:00)

Cosmos 2237 Rocket - Visible Passes

Search period start: 19 February 2026 00:00
Search period end: 01 March 2026 00:00
Orbit: 834 x 849 km, 71.0° (Epoch: 18 February)

Date Brightness Start Highest point End Pass type
(mag) Time Alt. Az. Time Alt. Az. Time Alt. Az.
19 Feb 5.0 18:44:01 10° NW 18:48:09 21° W 18:52:16 10° SSW visible
20 Feb 5.9 06:13:48 10° ESE 06:15:41 12° E 06:17:34 10° ENE visible
20 Feb 5.0 18:28:43 10° NW 18:32:59 22° W 18:37:14 10° SSW visible
21 Feb 6.0 05:59:07 10° ESE 06:00:32 11° E 06:01:57 10° E visible
21 Feb 5.0 18:13:26 10° NW 18:17:49 23° WSW 18:22:11 10° SSW visible
22 Feb 5.9 05:44:43 10° E 05:45:23 10° E 05:46:03 10° E visible
22 Feb 5.0 17:58:09 10° NW 18:02:39 25° WSW 18:07:08 10° SSW visible
27 Feb 3.2 06:06:54 10° S 06:12:21 53° ESE 06:17:50 10° NE visible
28 Feb 3.3 05:51:45 10° S 05:57:09 50° ESE 06:02:37 10° NE visible
